Simultaneous Nadir Overpasses (SNOs) Predictions

Prediction of SNOs between NOAA-19 and METOP-C Satellite Orbit:

Table of predicted SNOs for the next 14.0 days since TLE Epoch: 1/4/2019
Index Date (NOAA-19) Time (NOAA-19) Lat,Lon (NOAA-19) SZA (NOAA-19 ) Date (METOP-C) Time (METOP-C) Lat,Lon (METOP-C) SZA (METOP-C ) Distance(km) Time Diff (sec)
1 01/07/2019 03:43:35 -78.90, -42.74 78.54 01/07/2019 03:44:48 -78.91, -42.62 78.51 2.85 73
2 01/07/2019 04:34:38 78.88, 124.67 101.44 01/07/2019 04:35:28 78.90, 124.66 101.47 2.65 50
3 01/07/2019 05:25:35 -78.87, -68.00 78.57 01/07/2019 05:26:10 -78.89, -68.06 78.54 3.30 35
4 01/07/2019 06:16:39 78.88, 99.16 101.44 01/07/2019 06:16:50 78.89, 99.22 101.45 1.55 11
5 01/07/2019 07:07:36 -78.87, -93.50 78.58 01/07/2019 07:07:32 -78.88, -93.49 78.57 1.42 4
6 01/07/2019 07:58:40 78.88, 73.65 101.43 01/07/2019 07:58:12 78.87, 73.78 101.42 3.01 28
7 01/07/2019 08:49:37 -78.87,-119.01 78.59 01/07/2019 08:48:54 -78.87,-118.93 78.60 1.85 43
8 01/07/2019 09:40:40 78.85, 48.39 101.40 01/07/2019 09:39:34 78.86, 48.35 101.39 1.45 66
9 01/07/2019 10:31:28 -78.53,-142.07 78.83 01/07/2019 10:30:24 -78.55,-146.24 78.98 92.14 64
10 01/18/2019 02:25:02 78.93, 157.10 99.67 01/18/2019 02:26:11 78.92, 157.14 99.68 1.10 69
11 01/18/2019 03:16:02 -78.92, -35.59 80.35 01/18/2019 03:16:53 -78.93, -35.46 80.32 3.12 51
12 01/18/2019 04:07:02 78.89, 131.84 99.63 01/18/2019 04:07:33 78.91, 131.70 99.64 3.21 31
13 01/18/2019 04:58:02 -78.89, -60.85 80.39 01/18/2019 04:58:15 -78.92, -60.90 80.35 3.65 13
14 01/18/2019 05:49:03 78.90, 106.33 99.62 01/18/2019 05:48:55 78.89, 106.27 99.61 1.38 8
15 01/18/2019 06:40:03 -78.89, -86.35 80.40 01/18/2019 06:39:37 -78.90, -86.33 80.39 1.83 26
16 01/18/2019 07:31:04 78.90, 80.81 99.61 01/18/2019 07:30:17 78.88, 80.83 99.58 2.30 47
17 01/18/2019 08:22:04 -78.89,-111.86 80.41 01/18/2019 08:20:59 -78.89,-111.77 80.42 1.98 65




NCC Satellite Simultaneous Nadir Overpasses (SNOs) Prediction Service
